{"data":{"norad_id":67646,"epoch":"2026-09-20T22:15:10.194048Z","epoch_age_seconds":55796,"freshness":"FRESH","line1":"1 67646U 26021A   26263.92720132  .00003375  00000+0  14349-3 0  9996","line2":"2 67646  97.4510 337.0589 0012268 182.5396 177.5781 15.23665241 35442","mean_motion":15.23665241,"eccentricity":0.0012268,"inclination_deg":97.451,"raan_deg":337.0589,"arg_perigee_deg":182.5396,"mean_anomaly_deg":177.5781,"bstar":0.00014349,"rev_number":3544,"period_min":94.508948635916,"perigee_km":486.36466921654,"apogee_km":503.22809856726,"semimajor_km":6872.9333838919,"source":"CELESTRAK","updated_at":"2026-09-21T09:00:16.768361Z"}}